Wetbulb
52.08 46.86 43.78 44.67 45.10 45.15 40.04 37.53 35.40 37.95 41.63 39.60 39.61 40.72 43.71 43.36 41.60 40.43 41.87 43.04 44.43 45.97 46.37 48.07 48.35 48.17 48.69 49.61 50.37 50.15 51.50 52.19 56.02 57.84 57.32 57.31 58.25 58.95 58.70 58.88 58.86 58.30 57.59 57.10
47.78 44.17 47.75 48.17 45.57 41.83 40.24 36.44 36.30 40.06 42.38 39.64 38.60 39.85 42.42 41.36 41.04 40.97 42.36 42.94 44.28 45.25 45.65 47.14 47.78 47.12 47.07 46.91 47.71 48.87 50.29 51.65 53.86 57.18 58.00 58.65 58.42 58.73 59.32 60.04 60.28 60.32 59.96 59.46
44.19 46.15 50.40 48.38 45.15 41.75 38.73 36.51 36.19 37.05 41.05 40.31 38.49 37.72 39.51 39.89 40.94 43.48 43.20 44.07 45.39 45.60 45.51 45.93 46.33 46.27 46.17 46.23 46.61 48.46 48.75 49.56 51.38 54.55 57.60 57.65 57.47 57.12 56.03 56.35 57.17 57.35 57.91 59.20
46.68 47.78 48.31 46.22 42.55 45.70 41.24 42.05 39.96 39.25 36.73 33.00 37.90 30.54 35.54 37.75 39.61 41.18 40.67 42.43 44.11 44.75 45.26 46.33 46.58 46.27 46.03 46.39 47.14 47.97 48.62 49.15 49.86 49.66 50.39 50.67 50.90 50.68 51.81 52.88 52.25 51.78 52.89 53.83
42.82 44.90 45.63 45.63 45.09 43.33 41.03 42.20 39.78 38.84 35.20 31.67 33.08 31.58 35.47 36.50 38.14 40.19 40.84 41.11 42.41 44.47 45.53 45.93 46.30 46.99 46.66 46.86 46.63 47.01 48.30 48.56 48.01 47.86 47.18 47.19 46.46 47.12 48.13 47.77 47.75 48.43 49.36 50.63
43.31 48.71 48.88 47.04 45.91 42.80 42.96 39.14 37.53 34.97 33.25 28.51 33.15 33.87 34.11 34.63 39.45 38.50 39.82 40.88 42.97 44.33 44.53 45.38 46.19 46.75 46.17 45.97 46.51 46.84 47.73 47.29 47.46 47.92 47.49 46.37 45.65 46.02 46.81 46.50 47.03 47.19 47.71 48.53
39.69 39.49 43.32 43.15 40.56 40.73 38.90 35.57 29.71 28.49 28.28 28.27 31.85 31.18 38.29 38.63 40.05 42.89 41.82 41.03 42.14 43.84 44.21 44.65 45.04 45.35 45.60 45.18 45.32 47.07 46.63 46.26 46.50 46.89 46.61 46.12 45.85 45.57 45.26 45.21 45.41 45.29 46.15 46.64
33.93 34.30 38.12 40.06 39.83 36.87 36.16 36.88 30.76 26.10 26.37 28.54 32.42 29.82 36.89 39.09 40.10 43.36 43.79 42.18 42.21 43.23 43.64 44.16 44.68 44.69 44.27 44.43 44.57 45.06 45.41 45.48 45.83 45.79 45.51 45.07 45.00 45.31 44.94 44.50 44.55 44.40 44.59 45.20
33.25 33.54 38.22 39.37 39.38 41.27 35.31 33.85 37.56 33.42 29.79 28.54 31.53 34.76 37.76 40.00 38.95 40.82 41.37 41.51 41.65 42.93 43.45 43.91 44.50 43.99 43.23 43.34 43.91 44.55 44.70 44.60 44.78 44.58 44.58 44.01 43.29 43.12 42.92 42.80 42.72 42.89 42.95 44.99
37.40 30.87 37.10 38.12 39.77 38.25 37.61 39.48 33.45 31.87 27.42 25.38 28.29 29.33 33.93 35.65 37.14 39.11 39.90 40.66 41.64 42.61 43.47 43.73 43.87 43.02 43.03 43.70 44.09 43.93 43.42 42.60 42.65 42.74 42.64 43.00 42.02 41.64 41.31 40.77 40.20 40.59 41.33 41.78
38.38 35.25 33.76 36.86 35.34 35.12 34.58 32.75 33.25 34.02 31.07 26.99 24.85 30.14 36.63 37.57 39.55 40.58 40.94 41.87 41.63 41.74 43.14 43.22 42.53 42.48 43.21 43.27 42.41 41.54 40.94 40.56 40.41 41.00 40.62 40.00 39.75 39.14 38.16 37.66 38.01 38.27 38.87 39.28
41.14 36.47 31.42 32.90 37.89 38.32 35.54 35.44 34.30 30.41 28.58 28.17 26.83 30.68 37.47 37.88 40.46 41.76 41.98 42.28 41.76 42.50 42.75 42.39 42.10 42.65 42.36 41.43 40.23 39.20 38.95 38.71 39.00 39.27 38.43 38.02 36.81 36.11 35.55 35.77 36.18 36.57 36.02 37.03
43.24 36.30 31.41 32.13 36.27 37.28 35.88 36.15 35.15 34.35 32.77 28.97 27.42 31.05 39.10 37.77 39.37 40.12 41.84 43.15 42.73 42.42 41.75 41.02 42.14 42.12 41.14 40.05 38.40 36.95 36.64 36.56 37.53 37.04 36.27 35.07 34.31 33.82 33.46 33.86 34.38 34.45 34.43 34.65
44.96 37.18 34.11 31.97 33.77 36.59 34.32 36.52 35.64 35.23 30.16 29.95 30.40 32.45 35.66 38.27 39.74 40.32 41.31 41.57 41.17 42.19 41.36 40.54 41.84 41.02 39.43 37.95 36.39 35.32 34.83 35.04 35.27 34.89 33.97 32.56 32.24 32.08 32.01 32.25 32.51 32.80 33.23 32.82
40.88 35.76 35.36 34.68 36.00 36.71 36.54 37.00 35.74 34.14 33.36 32.09 32.09 33.80 35.32 36.88 39.05 39.48 40.93 41.17 42.36 42.14 39.22 40.76 41.25 39.82 37.57 35.77 34.31 33.99 33.86 34.00 33.63 32.97 31.73 31.19 31.17 30.88 30.60 30.59 30.93 31.44 31.63 31.71
39.24 34.11 33.63 30.01 34.06 34.05 32.12 34.01 36.76 35.82 35.54 34.58 35.45 34.96 38.87 39.61 39.35 40.78 40.46 39.52 40.96 39.51 38.57 41.31 40.83 37.85 36.30 33.50 33.14 33.50 32.66 32.28 31.68 30.89 29.87 30.38 30.07 29.78 29.48 29.76 29.94 30.10 30.06 30.10
36.61 33.79 31.43 27.29 31.84 32.19 29.88 33.60 33.48 33.04 33.91 35.30 31.99 35.93 39.00 39.04 39.96 39.02 39.72 40.12 40.64 38.57 39.79 40.82 38.35 36.77 34.84 32.79 32.73 31.23 30.80 30.92 29.95 29.32 29.19 29.33 29.37 28.87 28.84 29.05 28.82 28.44 28.17 28.60
34.35 32.62 31.63 28.66 31.12 25.13 33.84 38.47 38.80 36.31 37.30 37.90 39.50 39.91 39.97 39.49 39.32 38.75 39.33 40.20 39.62 38.82 40.61 38.33 36.52 34.87 32.82 32.13 31.33 31.56 31.44 29.20 28.00 27.81 27.77 28.38 28.27 27.89 28.12 27.66 27.19 26.97 27.71 27.55
37.24 34.73 31.19 30.79 29.20 31.58 34.49 37.50 36.41 36.85 36.00 39.46 39.03 39.24 39.32 38.69 37.40 38.03 39.76 39.11 37.94 39.03 38.11 36.80 35.09 33.57 31.27 30.55 31.94 30.36 27.15 26.39 26.50 26.56 26.40 27.11 27.09 26.96 26.90 26.19 26.03 26.68 27.03 26.96
36.54 35.73 33.90 27.65 26.76 28.01 34.39 38.66 40.73 39.04 32.11 39.00 39.77 38.49 38.48 37.77 33.84 36.23 38.14 38.92 38.16 37.81 36.74 35.00 33.80 32.48 32.56 30.99 27.72 26.32 26.14 24.74 24.66 25.73 26.17 26.68 26.76 26.40 25.55 25.44 25.61 26.83 26.49 26.72
31.00 31.24 30.30 30.71 29.03 32.16 37.53 39.48 40.21 30.66 30.99 38.06 37.95 37.52 36.87 35.96 38.23 39.15 39.16 37.96 37.68 36.72 35.19 33.84 33.58 31.36 28.81 29.35 27.16 26.44 26.76 24.12 25.06 25.95 26.05 26.22 26.09 25.20 25.13 25.32 25.88 25.99 25.65 25.84
30.35 28.38 28.96 29.52 28.01 27.81 38.54 38.57 35.42 36.61 37.92 38.22 38.15 37.79 37.15 38.41 38.72 38.85 38.35 37.27 36.67 34.17 33.17 32.43 29.82 29.23 30.07 30.00 28.77 26.93 23.46 24.59 24.86 25.12 25.06 24.88 24.55 25.74 27.50 24.62 25.34 25.32 24.74 24.07
32.27 34.66 32.51 32.53 31.66 37.76 37.86 38.22 38.88 39.46 38.36 38.03 37.70 38.71 38.37 38.60 38.45 39.10 37.93 36.84 36.11 33.22 30.74 30.52 29.29 29.33 29.41 29.10 27.55 22.91 23.74 24.24 24.35 23.54 23.09 23.52 24.11 24.22 25.00 24.13 24.56 24.11 24.26 23.55
33.35 36.31 34.70 35.00 35.10 36.37 37.66 38.68 39.44 38.88 39.00 39.16 38.99 38.58 38.12 37.09 37.28 37.17 36.57 35.89 33.47 31.04 29.28 29.24 29.47 28.41 27.74 25.76 24.09 23.14 23.50 24.01 23.16 21.64 21.73 23.08 22.31 25.10 25.20 24.58 24.92 24.32 23.40 23.35
34.57 36.43 35.21 34.78 35.75 36.43 37.12 37.64 38.42 38.88 37.71 37.25 37.06 36.97 36.72 35.13 34.25 33.99 34.91 35.17 32.40 30.43 30.67 29.22 27.98 25.27 23.90 23.34 22.93 23.14 23.73 23.25 22.40 22.03 22.38 22.45 22.91 22.87 23.54 24.46 24.74 24.64 25.34 26.43
35.88 35.34 33.98 33.27 37.01 36.39 36.44 38.19 38.17 37.62 36.82 36.91 35.88 35.22 33.94 33.71 34.21 34.76 34.64 35.08 31.77 30.11 29.14 26.46 23.85 23.38 22.52 22.32 22.25 23.03 23.77 23.12 21.88 22.44 22.97 22.63 23.81 23.41 24.00 23.42 23.50 28.56 29.70 31.00
MSLP
1011.56 1012.24 1012.04 1012.76 1013.35 1013.30 1013.69 1013.83 1013.83 1013.19 1012.43 1012.43 1011.65 1011.04 1010.12 1009.79 1010.01 1010.54 1010.80 1011.12 1011.40 1011.68 1011.86 1011.73 1011.38 1010.88 1010.54 1010.18 1009.94 1009.74 1009.34 1009.09 1008.95 1009.23 1009.54 1009.78 1009.76 1009.85 1010.01 1010.10 1009.90 1009.84 1009.87 1009.89
1012.41 1011.62 1011.78 1012.74 1013.19 1013.47 1013.75 1013.91 1013.81 1013.13 1012.34 1012.36 1011.52 1011.16 1010.24 1010.04 1010.22 1010.54 1010.79 1011.42 1011.70 1011.90 1012.12 1012.04 1011.95 1011.67 1011.46 1011.33 1010.95 1010.48 1010.12 1009.67 1009.33 1009.45 1009.62 1009.69 1009.85 1009.98 1010.14 1010.11 1009.97 1009.79 1009.76 1009.72
1011.17 1011.39 1011.81 1012.53 1013.10 1013.61 1013.58 1013.92 1013.83 1013.74 1012.96 1012.23 1011.93 1011.11 1010.38 1010.20 1010.35 1010.80 1011.18 1011.52 1011.94 1012.31 1012.60 1012.57 1012.51 1012.37 1012.27 1012.13 1011.79 1011.31 1010.89 1010.47 1010.11 1009.79 1009.75 1009.88 1009.95 1010.20 1010.40 1010.46 1010.29 1010.09 1009.89 1009.80
1011.46 1011.21 1011.58 1012.47 1012.81 1013.17 1013.50 1013.39 1013.57 1013.90 1014.24 1013.50 1012.91 1012.23 1011.06 1010.58 1010.86 1011.25 1011.45 1011.84 1012.25 1012.62 1012.85 1012.79 1012.80 1012.78 1012.73 1012.63 1012.27 1011.95 1011.60 1011.25 1011.08 1010.75 1010.71 1010.91 1011.26 1011.48 1011.66 1011.50 1011.13 1010.79 1010.53 1010.44
1010.32 1010.52 1011.30 1011.91 1011.94 1012.62 1012.86 1012.92 1013.51 1014.02 1014.33 1014.08 1013.66 1013.57 1010.97 1010.90 1011.27 1011.39 1011.78 1012.20 1012.40 1012.60 1012.98 1013.10 1013.08 1012.97 1013.03 1012.98 1012.97 1012.73 1012.30 1012.12 1011.90 1011.66 1011.63 1011.82 1012.03 1012.19 1012.10 1011.82 1011.55 1011.27 1010.98 1010.72
1010.45 1010.38 1010.92 1010.48 1011.63 1012.15 1012.32 1013.32 1013.95 1014.52 1014.79 1014.45 1013.56 1013.47 1011.18 1010.93 1010.23 1011.17 1011.73 1012.32 1012.38 1012.79 1013.18 1013.21 1013.21 1013.23 1013.39 1013.29 1013.25 1013.10 1012.86 1012.95 1012.79 1012.59 1012.61 1012.71 1012.81 1012.82 1012.67 1012.58 1012.35 1012.03 1011.59 1011.15
1010.52 1011.02 1010.45 1010.47 1011.47 1012.01 1012.68 1013.62 1014.64 1015.20 1015.25 1014.28 1013.37 1013.29 1010.61 1009.95 1009.76 1009.95 1011.08 1012.05 1012.43 1012.89 1013.15 1013.45 1013.62 1013.67 1013.79 1013.85 1013.79 1013.74 1013.67 1013.87 1013.66 1013.40 1013.37 1013.42 1013.48 1013.45 1013.42 1013.24 1012.94 1012.48 1011.97 1011.48
1010.30 1010.32 1009.85 1009.97 1010.14 1011.13 1012.30 1012.68 1013.84 1014.46 1014.92 1014.16 1013.44 1012.38 1010.04 1009.69 1009.52 1009.50 1010.42 1011.61 1012.47 1013.01 1013.43 1013.77 1013.86 1014.05 1014.22 1014.41 1014.41 1014.43 1014.49 1014.51 1014.33 1014.16 1014.16 1014.05 1013.94 1013.90 1013.82 1013.64 1013.36 1013.08 1012.71 1012.19
1009.45 1009.94 1009.80 1009.77 1009.84 1010.32 1011.91 1012.36 1012.86 1013.68 1014.43 1014.49 1012.89 1011.33 1010.04 1009.86 1009.84 1009.96 1010.86 1011.94 1012.57 1013.09 1013.70 1013.98 1014.08 1014.40 1014.72 1014.92 1015.04 1015.04 1014.97 1015.00 1014.90 1014.89 1014.81 1014.80 1014.63 1014.43 1014.34 1014.08 1013.80 1013.46 1012.97 1012.37
1008.52 1009.82 1009.97 1009.96 1009.90 1010.46 1010.68 1011.58 1012.90 1013.93 1014.61 1014.33 1012.80 1011.75 1010.40 1010.33 1010.61 1010.70 1011.39 1011.86 1012.55 1013.31 1013.85 1014.16 1014.47 1014.81 1015.10 1015.27 1015.40 1015.46 1015.52 1015.57 1015.52 1015.35 1015.29 1015.30 1015.25 1015.09 1014.83 1014.43 1014.00 1013.58 1013.10 1012.56
1008.17 1009.07 1010.70 1010.31 1010.29 1010.54 1011.24 1011.70 1012.68 1013.39 1014.12 1014.09 1013.44 1011.36 1010.06 1009.97 1010.16 1010.56 1011.17 1011.58 1012.46 1013.35 1013.81 1014.34 1014.82 1015.15 1015.40 1015.72 1015.93 1015.95 1015.88 1015.88 1015.89 1015.86 1015.86 1015.80 1015.66 1015.43 1015.16 1014.80 1014.42 1014.01 1013.55 1013.05
1007.90 1009.14 1010.63 1010.60 1010.46 1010.53 1010.80 1011.38 1012.14 1013.25 1014.05 1014.11 1013.50 1011.20 1010.05 1009.60 1009.80 1010.59 1011.11 1012.09 1012.84 1013.35 1013.79 1014.43 1015.07 1015.60 1015.97 1016.22 1016.28 1016.45 1016.53 1016.42 1016.41 1016.32 1016.29 1016.29 1016.09 1015.72 1015.44 1015.22 1014.83 1014.37 1013.86 1013.32
1007.47 1008.80 1010.48 1010.91 1011.11 1010.96 1010.97 1011.31 1011.69 1012.36 1012.99 1013.46 1013.10 1011.11 1010.08 1009.66 1010.06 1010.76 1011.42 1011.96 1012.51 1013.23 1013.94 1014.77 1015.50 1015.94 1016.27 1016.65 1016.93 1016.97 1016.90 1016.90 1016.87 1016.80 1016.66 1016.44 1016.25 1016.10 1015.88 1015.50 1014.98 1014.50 1014.01 1013.48
1007.40 1008.60 1009.18 1009.60 1009.78 1010.07 1010.85 1010.97 1011.38 1011.85 1012.85 1012.76 1012.06 1011.14 1010.25 1010.27 1010.49 1010.82 1011.24 1011.78 1012.49 1013.35 1014.04 1014.87 1015.74 1016.35 1016.76 1016.98 1017.11 1017.30 1017.45 1017.44 1017.20 1016.93 1016.80 1016.71 1016.57 1016.35 1016.10 1015.74 1015.26 1014.76 1014.26 1013.67
1007.67 1008.64 1009.18 1009.46 1009.45 1009.57 1009.82 1010.16 1010.78 1011.42 1011.56 1011.72 1011.31 1011.07 1010.47 1010.46 1010.73 1011.03 1011.34 1011.86 1012.53 1013.34 1014.45 1015.28 1016.03 1016.62 1017.00 1017.41 1017.69 1017.64 1017.51 1017.58 1017.57 1017.40 1017.25 1017.06 1016.77 1016.54 1016.29 1015.87 1015.39 1014.87 1014.36 1013.79
1008.08 1009.21 1009.43 1009.96 1009.83 1009.69 1009.86 1010.10 1010.57 1011.05 1011.20 1011.28 1011.18 1011.02 1010.42 1010.51 1010.71 1011.14 1011.71 1012.38 1013.00 1013.79 1014.69 1015.63 1016.46 1017.01 1017.36 1017.63 1017.76 1017.85 1017.97 1017.94 1017.93 1017.78 1017.60 1017.26 1017.05 1016.81 1016.52 1015.99 1015.39 1014.80 1014.26 1013.76
1008.93 1009.44 1010.06 1010.48 1010.30 1010.11 1010.27 1009.53 1010.05 1010.56 1010.64 1010.60 1011.02 1010.80 1010.79 1011.16 1011.45 1011.70 1012.10 1012.69 1013.27 1013.99 1014.88 1015.72 1016.59 1017.13 1017.52 1017.86 1018.05 1018.11 1018.11 1018.04 1018.05 1018.19 1017.87 1017.52 1017.30 1016.97 1016.52 1016.06 1015.58 1015.12 1014.50 1013.82
1009.44 1009.92 1010.53 1011.01 1010.91 1010.65 1009.42 1009.15 1009.46 1010.15 1010.63 1010.67 1010.90 1011.13 1011.29 1011.56 1011.76 1012.04 1012.40 1012.77 1013.33 1014.12 1015.12 1016.11 1016.70 1017.24 1017.65 1017.88 1017.96 1018.14 1018.24 1018.34 1018.42 1018.40 1018.06 1017.79 1017.50 1017.13 1016.60 1016.17 1015.77 1015.21 1014.52 1013.86
1009.84 1010.62 1011.69 1011.67 1011.25 1010.35 1009.60 1009.26 1009.61 1009.73 1011.35 1011.30 1011.43 1011.71 1011.90 1012.04 1012.33 1012.57 1013.04 1013.38 1013.75 1014.60 1015.52 1016.25 1016.76 1017.20 1017.55 1017.71 1017.88 1018.15 1018.44 1018.68 1018.80 1018.55 1018.18 1017.78 1017.35 1016.97 1016.49 1016.14 1015.64 1015.03 1014.33 1013.62
1010.65 1010.84 1011.23 1011.94 1011.60 1010.49 1009.46 1009.07 1009.15 1009.59 1011.38 1011.73 1011.87 1012.18 1012.25 1012.56 1013.32 1013.58 1013.68 1013.99 1014.52 1015.05 1015.66 1016.27 1016.81 1017.27 1017.62 1018.03 1018.30 1018.63 1018.73 1018.65 1018.65 1018.36 1018.01 1017.64 1017.29 1016.99 1016.59 1016.03 1015.36 1014.73 1014.25 1013.48
1011.96 1012.11 1012.34 1012.38 1011.82 1010.67 1009.63 1009.51 1009.76 1010.93 1012.11 1012.07 1012.28 1012.52 1012.69 1013.08 1013.42 1013.53 1013.92 1014.56 1015.11 1015.56 1016.08 1016.61 1017.04 1017.57 1018.00 1018.24 1018.28 1018.55 1018.55 1018.65 1018.53 1018.32 1017.83 1017.47 1017.19 1016.86 1016.20 1015.68 1015.24 1014.59 1013.88 1013.25
1011.58 1012.21 1012.59 1012.59 1012.18 1011.22 1009.93 1010.06 1010.63 1011.41 1011.91 1012.18 1012.42 1012.44 1012.46 1012.75 1013.28 1013.89 1014.57 1015.27 1015.71 1016.17 1016.64 1017.07 1017.46 1017.79 1018.01 1018.17 1018.37 1018.35 1018.39 1018.47 1018.36 1017.98 1017.69 1017.46 1017.02 1016.54 1015.91 1015.51 1014.87 1014.27 1013.63 1012.95
1011.33 1010.91 1011.24 1011.60 1011.26 1010.72 1010.38 1010.46 1010.85 1011.28 1011.84 1012.17 1012.24 1012.45 1012.77 1013.24 1013.76 1014.26 1014.78 1015.40 1015.89 1016.31 1016.70 1017.12 1017.56 1017.82 1018.01 1018.13 1018.29 1018.47 1018.39 1018.39 1018.19 1017.96 1017.67 1017.23 1016.71 1016.19 1015.61 1015.11 1014.50 1013.95 1013.38 1012.73
1010.93 1010.81 1011.00 1011.30 1011.40 1011.12 1011.02 1011.07 1011.25 1011.57 1011.96 1012.27 1012.55 1012.79 1013.06 1013.45 1013.81 1014.27 1014.88 1015.49 1016.07 1016.59 1017.06 1017.40 1017.69 1017.97 1018.17 1018.28 1018.35 1018.56 1018.50 1018.19 1018.03 1017.76 1017.30 1016.79 1016.37 1015.65 1015.07 1014.70 1014.22 1013.67 1013.06 1012.27
1011.08 1011.09 1011.16 1011.38 1011.50 1011.67 1011.72 1011.72 1011.93 1012.25 1012.63 1012.92 1013.10 1013.20 1013.48 1013.84 1014.20 1014.63 1015.26 1015.85 1016.37 1016.83 1017.18 1017.49 1017.97 1018.36 1018.43 1018.43 1018.48 1018.37 1018.11 1017.93 1017.72 1017.30 1016.83 1016.33 1015.89 1015.43 1014.74 1014.13 1013.70 1013.14 1012.59 1012.08
1011.00 1010.86 1011.11 1011.02 1010.97 1011.33 1011.99 1012.20 1012.38 1012.90 1013.28 1013.57 1013.75 1013.78 1014.03 1014.32 1014.71 1015.09 1015.49 1015.89 1016.43 1016.96 1017.40 1017.84 1018.32 1018.46 1018.48 1018.42 1018.19 1018.08 1017.84 1017.65 1017.38 1016.97 1016.46 1016.12 1015.61 1014.96 1014.35 1013.61 1012.70 1012.70 1012.09 1011.29
Wind_Speed
11 8 15 13 11 3 4 4 3 5 6 5 9 10 15 6 3 5 6 6 6 6 4 6 7 9 9 11 11 9 9 8 1 1 2 1 3 2 2 3 6 6 5 6
8 16 15 7 4 5 3 2 5 8 4 4 3 9 10 4 4 5 8 6 5 5 6 7 8 8 10 8 9 9 9 9 5 1 1 2 1 1 1 3 4 5 5 6
12 10 9 14 7 7 4 4 4 6 9 4 5 8 5 2 2 3 3 4 5 6 6 6 7 8 8 9 8 9 8 9 8 7 3 3 3 3 4 4 4 5 7 6
10 8 12 10 9 10 11 8 3 6 4 4 3 7 6 4 4 4 5 5 6 6 4 5 7 7 8 7 7 8 9 11 10 10 9 8 4 4 3 3 3 5 7 7
6 9 15 13 7 8 8 6 6 5 4 3 2 2 8 3 7 8 7 6 6 6 6 6 6 6 6 7 7 6 9 11 9 11 8 6 7 4 3 4 7 7 6 6
5 6 13 14 5 10 3 4 5 3 3 3 8 8 6 6 11 5 4 6 7 7 6 6 5 6 6 7 7 8 10 10 10 10 10 10 9 7 7 7 7 6 5 5
3 6 6 6 6 4 5 6 1 2 2 7 1 3 11 4 7 12 12 9 8 7 6 6 6 6 7 8 8 8 10 10 8 10 10 9 8 7 7 6 5 7 7 6
5 7 10 5 8 9 8 8 7 7 4 5 4 7 7 6 7 8 10 9 7 7 5 6 6 7 7 7 8 8 8 8 8 8 8 7 8 5 4 6 5 5 5 6
6 3 3 2 4 10 6 5 5 3 1 1 4 8 4 6 5 8 12 9 8 7 6 7 6 7 7 7 7 7 7 8 9 8 6 7 7 8 7 7 5 4 6 8
6 6 2 2 4 4 6 7 3 3 3 5 5 5 6 2 3 5 9 10 8 6 7 6 6 7 6 6 6 7 7 7 6 7 7 6 7 7 6 5 8 9 9 10
5 5 1 4 4 8 3 2 5 4 4 4 2 7 5 5 8 12 9 9 7 7 7 6 6 6 7 6 6 6 6 7 7 7 6 6 6 6 6 7 8 9 9 11
2 6 5 3 1 3 3 7 6 6 5 2 3 8 4 4 8 7 7 4 5 6 7 7 7 6 6 6 6 6 6 6 6 6 6 6 6 8 10 10 10 10 10 11
6 1 5 3 4 3 4 5 4 4 3 6 6 7 3 4 7 3 5 8 8 8 7 7 6 6 6 5 5 5 5 6 6 5 5 6 8 8 8 9 9 10 10 11
6 4 7 9 6 6 5 5 6 6 4 4 6 4 2 6 5 1 2 2 6 7 9 6 6 5 5 5 5 5 5 5 5 5 6 7 7 8 7 8 9 10 10 11
3 4 3 3 4 4 4 6 9 7 5 7 3 7 2 1 5 5 6 4 8 9 7 7 6 5 5 4 4 4 6 6 5 5 6 6 6 6 6 7 8 9 9 10
3 2 3 2 4 4 1 2 6 3 3 3 3 4 3 3 1 1 3 4 5 6 7 7 6 6 4 4 4 5 4 5 5 5 6 5 6 6 7 9 10 11 11 12
3 6 3 3 2 3 4 9 7 5 4 6 6 3 2 3 4 1 2 6 7 7 8 8 7 5 4 4 3 5 4 5 6 5 6 6 7 8 9 9 10 10 11 10
5 4 3 3 2 2 2 3 4 6 4 4 6 4 3 3 2 3 3 6 8 9 8 7 6 5 4 3 4 4 4 5 5 5 6 6 6 7 8 8 9 9 9 10
4 5 4 4 4 2 2 4 7 5 2 3 3 2 3 1 2 4 3 4 1 6 6 5 5 4 5 4 3 3 4 4 5 5 5 6 6 8 9 9 10 10 10 11
5 5 4 3 4 6 2 1 2 4 2 2 3 3 2 2 2 5 1 3 6 7 7 7 6 4 4 3 3 3 3 4 5 6 6 6 6 7 9 9 10 9 9 11
2 3 4 2 2 6 4 2 2 4 5 3 4 3 2 3 5 3 5 4 4 5 7 6 5 5 4 2 1 1 3 5 5 6 6 6 6 7 7 7 8 10 10 11
7 6 4 3 2 7 0 2 6 4 3 5 5 4 2 1 1 2 3 5 6 7 6 5 4 4 3 2 0 3 5 5 5 6 6 7 7 7 8 8 9 9 10 10
3 6 6 7 5 2 2 5 4 6 6 4 2 3 4 4 4 4 5 6 6 6 5 3 3 4 2 2 3 4 6 6 6 6 7 7 8 7 8 7 10 9 9 9
1 2 3 3 2 3 4 3 3 2 3 3 2 2 2 2 2 3 3 5 5 5 4 3 2 1 2 3 4 3 6 6 5 7 7 7 6 10 8 6 6 7 8 9
3 4 5 1 1 4 3 1 3 4 1 1 2 1 1 1 1 2 3 4 5 5 3 2 0 1 3 4 5 5 6 5 6 6 7 7 6 7 9 8 8 8 8 10
5 7 5 6 6 5 4 4 3 4 2 1 2 3 2 1 3 4 4 4 4 4 3 1 1 2 4 5 6 6 6 6 6 7 6 6 7 7 7 9 11 14 18 23
Wind_Direction
185 182 193 178 198 158 181 188 222 254 247 219 232 256 268 298 286 155 159 138 116 81 31 23 20 18 17 25 25 19 19 353 184 124 141 172 227 222 273 253 244 245 244 246
164 210 203 169 154 160 183 202 266 292 330 183 277 264 271 278 233 195 163 151 135 92 47 29 23 26 28 19 15 22 22 13 19 51 56 77 85 42 302 325 306 281 276 269
203 180 159 185 183 186 219 200 242 226 320 295 332 294 269 242 97 142 146 126 103 100 85 51 41 39 31 30 13 24 16 25 24 26 49 36 43 37 19 8 1 354 357 348
223 189 160 190 204 181 224 201 204 276 316 250 28 281 292 217 184 200 151 134 124 110 86 72 58 48 38 24 22 30 33 36 36 30 51 54 57 61 360 350 350 3 15 17
182 158 173 198 192 163 223 152 198 230 227 353 302 337 264 138 224 212 200 178 139 130 121 94 80 72 49 39 37 34 49 44 33 41 45 51 49 36 8 14 21 7 1 11
159 178 186 191 187 181 124 88 52 65 73 286 223 174 265 200 216 172 178 196 157 145 127 108 87 74 58 43 41 37 51 38 33 45 45 53 51 36 35 16 15 356 352 349
122 181 172 132 134 124 104 112 342 328 312 228 159 158 260 243 233 185 175 182 176 152 149 130 99 73 57 48 44 53 49 39 29 45 45 40 45 44 39 17 8 2 357 354
160 170 158 194 157 166 172 162 163 200 204 255 100 236 251 275 288 172 153 153 154 167 151 124 113 84 68 65 63 60 56 50 36 40 38 32 33 31 23 15 3 358 348 332
135 185 112 123 130 148 183 173 177 85 51 27 230 290 283 356 42 135 139 147 175 174 144 138 119 88 88 81 72 70 59 46 37 31 30 28 23 24 15 2 353 340 333 340
201 96 34 140 111 38 139 165 94 26 238 247 282 280 250 309 184 142 150 176 189 144 143 141 109 110 98 87 72 59 56 57 39 34 29 28 16 10 358 351 356 352 344 343
148 99 242 117 195 163 100 134 62 125 145 194 292 270 222 239 194 178 179 196 166 158 162 139 119 112 101 85 72 66 54 48 36 29 21 24 11 359 351 0 356 352 344 343
174 120 125 180 267 152 144 167 153 137 222 216 160 275 330 292 162 167 197 92 139 169 160 140 135 122 102 87 67 56 43 43 33 25 24 16 5 8 8 359 352 349 346 343
172 36 98 44 8 357 190 192 148 116 96 195 149 266 335 47 117 125 166 186 182 163 141 132 131 123 109 99 81 64 46 37 26 19 29 21 15 5 355 348 346 344 341 337
98 129 156 186 196 147 177 180 171 148 147 178 220 281 349 74 111 189 276 240 167 159 159 139 129 137 124 100 74 56 41 29 17 25 28 20 5 354 345 334 337 338 337 333
120 123 117 84 127 134 177 180 172 181 171 173 226 196 271 218 241 257 271 178 170 171 145 153 154 138 102 96 76 53 36 24 5 22 16 2 344 336 329 330 330 330 334 334
17 124 111 76 48 69 127 170 168 189 203 245 218 263 252 16 10 349 304 212 193 161 156 149 131 126 131 90 65 53 40 27 12 12 358 347 341 335 335 336 338 338 337 334
94 129 109 210 53 62 312 216 186 178 193 158 189 193 17 45 90 80 212 209 206 182 155 151 146 132 109 89 74 55 36 19 15 352 341 344 338 338 337 333 331 327 324 318
115 87 72 149 75 194 225 316 156 127 64 116 92 100 136 174 208 237 245 208 204 169 146 135 136 126 123 106 71 64 35 17 355 337 339 332 332 326 323 325 322 316 318 321
45 117 119 165 193 295 46 187 149 159 120 30 91 69 69 74 42 318 9 348 159 126 115 127 131 128 121 90 73 62 29 357 333 330 324 325 328 327 330 324 318 317 319 319
45 68 105 86 148 214 188 149 99 94 226 345 126 91 29 109 34 250 334 111 100 112 126 134 129 114 104 77 62 44 5 3 339 325 317 315 315 317 313 306 311 310 307 308
94 33 149 149 219 289 248 227 63 122 199 149 122 135 136 144 200 273 144 114 117 121 120 111 111 119 140 164 132 41 0 348 309 304 305 308 300 299 292 306 306 304 307 306
162 143 176 97 104 264 214 71 166 158 128 153 179 182 68 2 317 215 164 136 135 118 113 119 140 165 148 119 264 11 359 305 303 311 309 297 292 296 303 293 297 301 308 308
193 178 175 177 217 245 332 125 130 146 152 196 164 201 197 211 231 202 194 167 159 152 145 156 174 159 143 87 42 360 314 318 307 308 298 296 290 286 288 293 304 306 307 306
214 163 142 121 177 144 123 72 99 133 163 208 226 229 184 221 296 263 151 160 148 146 173 182 164 71 354 1 360 293 290 299 307 299 297 295 291 309 302 286 291 301 306 308
200 135 157 285 150 68 338 285 201 208 159 334 331 288 300 341 346 118 156 159 160 168 160 131 84 319 311 319 303 299 305 315 307 296 294 300 298 288 294 293 304 308 305 301
186 179 167 214 185 145 178 186 185 174 192 36 320 312 70 50 182 154 171 168 151 156 151 174 248 287 295 308 309 312 303 294 293 306 309 301 301 294 302 306 309 308 307 309